Вернуться в каталог

FENGYUN 1C DEB

АктивенPO
NORAD 31559·DEBRIS·🇨🇳 China

Запущен May 10, 1999 с Taiyuan Satellite Launch Center

Loading…

Ближайшие Пролёты (ближайшие 24 часа)

TLE

СвежийSource: Space-Track

Эпоха: Sep 14, 2026, 10:38 UTC

1 31559U 99025BZA 26257.44307803  .00003785  00000-0  66769-3 0  9999
2 31559  98.8830 238.5766 0054029  63.1501  89.0644 14.67215902 15929

Отслеживайте FENGYUN 1C DEB в реальном времени с AllMySat

Download on the App Store